Flag Weather past 2 weeks in Dortmund, North Rhine-Westphalia, Germany

Now
54 °F

Passing clouds.


Feels Like: 53 °F
Forecast: 36 / 51 °F
Wind: 5 mph from South

Location: Dortmund / Wickede

Current Time: Nov 23, 2014 at 10:03:56 AM

Latest Report: Nov 23, 2014 at 9:20 AM


Visibility: N/A

Pressure: 30.07 "Hg

Humidity: 77%

Dew point: 46 °F

Location of DortmundLocation

Historic Weather in Dortmund — Graph

°F

Dortmund temperature yesterday

Maximum temperature yesterday: 55 °F (at 1:20 PM)
Minimum temperature yesterday: 36 °F (at 5:20 AM)
Average temperature yesterday: 46 °F

Past Weeks' High & Low Weather Summary

 TemperatureHumidityPressure
High57 °F (Nov 9, 1:20 PM)93% (Nov 11, 7:50 AM)30.33 "Hg (Nov 11, 7:50 AM)
Low32 °F (Nov 21, 5:20 AM)51% (Nov 9, 2:20 PM)29.50 "Hg (Nov 16, 12:50 PM)
Average48 °F80%29.86 "Hg
* Reported Nov 8 8:20 AM — Nov 23 8:50 AM, Dortmund, Weather by CustomWeather, © 2014

Note: Actual official high and low records may vary slightly from our data, if they occured in-between our weather recording intervals... More about our weather records

Advertising

Dortmund weather history for previous 24 hours

 ConditionsComfort  
Time TempWeatherWind HumidityBarometerVisibility
8:50 AM
Nov 23
48 °FPassing clouds.5 mph82%30.09 "HgN/A
8:20 AM50 °FSunny.6 mph76%30.07 "Hg10 mi
7:50 AM50 °FClear.No wind76%30.07 "Hg10 mi
7:20 AM52 °FClear.10 mph77%30.07 "Hg10 mi
6:50 AM54 °FClear.9 mph72%30.07 "Hg10 mi
6:20 AM54 °FClear.13 mph72%30.07 "Hg10 mi
5:50 AM52 °FClear.8 mph77%30.07 "Hg10 mi
5:20 AM52 °FClear.9 mph77%30.07 "Hg10 mi
10:50 PM
Nov 22
48 °FClear.3 mph82%30.09 "Hg10 mi
10:20 PM50 °FPassing clouds.7 mph76%30.07 "HgN/A
9:50 PM46 °FClear.3 mph87%30.07 "Hg10 mi
9:20 PM45 °FClear.6 mph87%30.07 "Hg10 mi
8:50 PM45 °FClear.2 mph81%30.07 "Hg10 mi
8:20 PM46 °FClear.1 mph82%30.07 "Hg10 mi
7:50 PM46 °FClear.6 mph76%30.07 "Hg10 mi
7:20 PM48 °FClear.12 mph82%30.07 "Hg10 mi
6:50 PM46 °FPassing clouds.8 mph82%30.07 "HgN/A
6:20 PM46 °FClear.5 mph76%30.07 "Hg10 mi
5:50 PM48 °FClear.9 mph82%30.07 "Hg10 mi
5:20 PM48 °FClear.8 mph82%30.07 "Hg10 mi
4:50 PM50 °FClear.8 mph76%30.07 "Hg10 mi
4:20 PM48 °FSunny.3 mph76%30.07 "Hg10 mi
3:50 PM52 °FSunny.7 mph72%30.07 "Hg10 mi
3:20 PM54 °FSunny.6 mph67%30.07 "Hg10 mi
2:50 PM54 °FSunny.8 mph67%30.07 "Hg10 mi
2:20 PM54 °FSunny.7 mph67%30.07 "Hg10 mi
1:50 PM55 °FSunny.6 mph63%30.07 "Hg10 mi
1:20 PM55 °FSunny.7 mph63%30.07 "Hg10 mi
12:50 PM54 °FPassing clouds.6 mph63%30.07 "HgN/A
12:20 PM54 °FSunny.12 mph63%30.07 "Hg10 mi
11:50 AM52 °FSunny.10 mph67%30.07 "Hg10 mi
11:20 AM50 °FSunny.8 mph71%30.09 "Hg10 mi
10:50 AM48 °FSunny.9 mph71%30.09 "Hg10 mi
10:20 AM46 °FSunny.13 mph71%30.09 "Hg10 mi
Weather by CustomWeather, © 2014

See weather overviewHow to use our weather pages